Other Public Products
Issued by NWS Grand Forks, ND

Home | Current Version | Previous Version | Graphics & Text | Print | Product List | Glossary On
Versions: 1 2 3 4 5 6 7 8 9 10 11 12 13 14 15 16 17 18 19 20 21 22 23 24 25 26 27 28 29 30 31 32 33 34 35 36 37 38 39 40 41 42 43 44 45 46 47 48 49 50
000
FPUS83 KFGF 300410
OPUFGF
PRAIRIE TO PINES WEATHER ROUNDUP
NATIONAL WEATHER SERVICE EASTERN NORTH DAKOTA/GRAND FORKS ND
1100 PM CDT FRI AUG 29 2014

 **SATELLITE DATA USED TO AUGMENT SKY COVER AT AUTOMATED STATIONS**
 *****  WEATHER ACROSS EASTERN NORTH DAKOTA  *****

CITY           SKY/WX    TMP DP  RH WIND       PRES   REMARKS
GRAND FORKS    CLOUDY    62  55  77 N12       29.91R
GRAND FORKS AF CLOUDY    60  59  97 N12       29.93R
GRAND CITY NWS   N/A     61 N/A N/A VRB7        N/A
BUXTON         NOT AVBL
DEVILS LAKE    CLEAR     54  46  76 NE5       29.96R
FARGO          CLOUDY    62  56  80 N18G24    29.86S
WAHPETON ARPT  CLOUDY    63  57  82 N13       29.85R
$$

 *****  WEATHER ACROSS CENTRAL AND WESTERN NORTH DAKOTA  *****

CITY           SKY/WX    TMP DP  RH WIND       PRES   REMARKS
JAMESTOWN      CLOUDY    61  55  81 N8        29.94R
BISMARCK       CLEAR     57  53  86 E5        29.98S
MINOT          CLEAR     54  48  80 E5        29.96F
MINOT AFB      CLEAR     51  50  97 SE3       29.96S
GARRISON         N/A     55  51  86 NE3       29.98S
WILLISTON      CLEAR     60  49  66 CALM      29.96S
DICKINSON      CLEAR     56  50  80 E7        29.98S
HETTINGER      CLEAR     54  50  86 E8        30.01R
$$

 *****  OTHER OBSERVATIONS NORTHEAST NORTH DAKOTA  *****

CITY           SKY/WX    TMP DP  RH WIND       PRES   REMARKS
WALHALLA       FAIR      54  54 100 NW5       29.97R
LANGDON        FAIR      50  46  87 NE6       29.97R
CAVALIER       FAIR      55  54  94 N8        29.95R
GRAFTON        FAIR      57  55  94 N8        29.94R
CANDO          FOG       50  48  93 CALM      29.98R VSB 1
FORT TOTTEN      N/A     58  52  79 NE3       29.95
ROLLA          FAIR      46  46 100 NW5       29.99S
RUGBY          FAIR      52  52 100 E3        29.97S
 ***** THE ABOVE OBSERVATIONS ARE NON NWS ARE NOT QUALITY
        CONTROLLED AND MAY MIS-REPORT RAIN FOR SNOW...
$$

 *****  OTHER OBSERVATIONS SOUTHEAST NORTH DAKOTA *****

CITY           SKY/WX    TMP DP  RH WIND       PRES   REMARKS
COOPERSTOWN    NOT AVBL
VALLEY CITY    CLOUDY    59  59 100 N13       29.92S
OAKES            N/A     59  59 100 N17G26    29.91R
GWINNER        CLOUDY    63  57  82 N17G23    29.90R
SHEYENNE NWR     N/A     62  56  82 N10       29.95
BUFFALO        NOT AVBL
WYNDMERE       NOT AVBL
 ***** THE ABOVE OBSERVATIONS ARE NON NWS ARE NOT QUALITY
       CONTROLLED AND MAY MIS-REPORT RAIN FOR SNOW...
$$

  *****  WEATHER ACROSS NORTHERN MINNESOTA  *****

CITY           SKY/WX    TMP DP  RH WIND       PRES   REMARKS
FLAG ISLAND    CLEAR     61  57  88 N12       29.88R
WARROAD        CLEAR     57  54  88 N7        29.90R
ROSEAU         CLEAR     55  52  88 N9        29.90R
HALLOCK        PTCLDY    55  52  88 N9        29.93R
THF RVR FALLS  MOCLDY    61  55  82 N12       29.89S
HALSTAD          N/A     61  57  87 N14         N/A
FOSSTON        CLOUDY    61  57  88 N12G18    29.87R
BAUDETTE       CLOUDY    59  56  89 N8        29.87R
WASKISH        CLOUDY    59  57  94 N7        29.85R
CROOKSTON      CLOUDY    61  57  88 N12       29.90R
$$
  *****  WEATHER ACROSS CENTRAL AND WEST MINNESOTA  *****

CITY           SKY/WX    TMP DP  RH WIND       PRES   REMARKS
BEMIDJI        CLOUDY    64  62  91 N8        29.83R
PARK RAPIDS    CLOUDY    66  64  93 NW6       29.82S
WADENA         PTCLDY    64  63  94 NW3       29.82R
DETROIT LAKES  CLOUDY    64  63  94 NW10      29.84S
MOORHEAD       CLOUDY    63  61  94 N16G24    29.86S
FERGUS FALLS   MOCLDY    64  63  94 N9        29.82S
ELBOW LAKE     MOCLDY    66  64  94 N5        29.82R
MORRIS MN      MOCLDY    66  64  94 N6        29.81R
STAPLES        CLOUDY    64  64 100 CALM      29.81R
WHEATON        CLOUDY    63  61  94 NW16      29.85R
$$
  *****  WEATHER ELSEWHERE ACROSS MINNESOTA  *****

CITY           SKY/WX    TMP DP  RH WIND       PRES   REMARKS
DULUTH         CLOUDY    63  60  90 CALM      29.80F
INTRNTL FALLS  CLOUDY    62  60  93 N9        29.83R
ELY            CLOUDY    61  59  94 CALM      29.81F
CLOQUET        FOG       63  61  94 CALM      29.80S VSB 1/2
BRAINERD       CLOUDY    65  64  97 CALM      29.81R
HIBBING        FOG       61  59  93 CALM      29.81S VSB 1/4
ALEXANDRIA     MOCLDY    65  64  97 N6        29.83R
SAINT CLOUD    CLOUDY    70  67  90 CALM      29.79R FOG
MINNEAPOLIS    CLOUDY    70  69  97 N5        29.76F
$$

  *****  WEATHER ACROSS SOUTH DAKOTA  *****

CITY           SKY/WX    TMP DP  RH WIND       PRES   REMARKS
SIOUX FALLS    MOCLDY    67  65  93 CALM      29.82R
BROOKINGS      NOT AVBL
WATERTOWN      CLOUDY    66  63  90 NW15      29.85R
HURON          MOCLDY    65  59  81 N13       29.88R
SISSETON         N/A     64  62  93 N14       29.85R
ABERDEEN       CLOUDY    61  57  87 N16       29.90R
MITCHELL       CLOUDY    68  64  87 NW12      29.87R
PIERRE         CLEAR     61  58  90 N8        29.94R
MOBRIDGE       CLEAR     55  54  96 NE3       29.95R
RAPID CITY     CLOUDY    63  54  72 NE3       30.03R
$$

  *****  SOME WEATHER IN NEARBY STATES *****

CITY           SKY/WX    TMP DP  RH WIND       PRES   REMARKS
GLASGOW MT     CLEAR     60  53  77 E12       29.90F
GREAT FALLS MT CLEAR     66  43  43 S7        29.80S
CHEYENNE WY    PTCLDY    56  50  80 W5        30.18S
SCOTTSBLUFF NE PTCLDY    61  57  87 CALM      30.08R
OMAHA NE       PTCLDY    69  65  86 W7        29.83R
DES MOINES IA  MOCLDY    70  66  87 S6        29.79R
DAVENPORT IA   CLOUDY    72  68  87 S14G23    29.82F
CHICAGO IL     MOCLDY    76  67  73 S12       29.87F
EAU CLAIRE WI  LGT RAIN  67  66  97 N5        29.78S
LA CROSSE WI   CLOUDY    70  67  90 E9        29.77F
$$

  *****  SOME NATIONAL WEATHER *****

CITY           SKY/WX    TMP DP  RH WIND       PRES   REMARKS
LA GUARDIA NY  PTCLDY    69  53  56 SE7       30.25R
RALEIGH NC     CLOUDY    76  69  79 SE7       30.19R
ATLANTA GA     MOCLDY    81  61  50 SE5       30.11R
NEW ORLEANS LA CLOUDY    77  71  82 SE6       30.01R
OKLAHOMA CITY  PTCLDY    70  66  87 S7        29.92R
ALBUQUERQUE NM CLEAR     72  43  35 E8        30.13R
SALT LAKE CITY MOCLDY    76  41  28 SE9       29.95S
LOS ANGELES CA CLEAR     68  62  81 SW5       29.83R
BOISE ID       CLOUDY    82  44  26 CALM      29.79R
SEATTLE WA     PTCLDY    65  54  67 SW10      29.96R
$$

*** WEATHER ACROSS MANITOBA...SASKATCHEWAN AND ONTARIO ***
                ***ONTARIO***

CITY           SKY/WX    TMP DP  RH WIND       PRES   REMARKS
GERALDTON      PTCLDY    57  57 100 CALM      29.79
THUNDER BAY    CLOUDY    59  57  94 SW2       29.80R
SIOUX LOOKOUT  CLOUDY    57  55  94 N5        29.86R
TORONTO        MOCLDY    64  59  82 E2        30.11S
BIG TROUT LK   CLOUDY    54  50  87 N7        29.85R
PICKLE LAKE    NOT AVBL
DRYDEN         PTCLDY    55  54  94 N7        29.87R
KENORA         PTCLDY    55  54  94 N7        29.90R
$$
                *** MANITOBA***

CITY           SKY/WX    TMP DP  RH WIND       PRES   REMARKS
BRANDON        CLEAR     50  46  87 NE2       29.99R
DAUPHIN        CLEAR     48  48 100 SW5       29.97S
ISLAND LAKE    CLOUDY    54  46  76 NW10      29.94R
PILOT MOUND      N/A     52  46  82 NE6         N/A
THE PAS        PTCLDY    46  43  87 SE2       29.94S
THOMPSON       MOCLDY    48  46  93 NW2       29.94R
WINNIPEG       CLEAR     48  45  87 N8        29.96R
LYNN LAKE      CLEAR     45  41  87 MISG      29.91S
CHURCHILL      PTCLDY    50  41  71 W13       29.77S
GILLAM         MOCLDY    55  41  58 NW13      29.88S
$$
                ***SASKATCHEWAN***

CITY           SKY/WX    TMP DP  RH WIND       PRES   REMARKS
ESTEVAN        PTCLDY    54  48  82 E7        29.97S
KINDERSLEY     MOCLDY    61  50  67 SE15      29.75F
LLOYDMINSTER   CLEAR     57  46  67 SE17      29.72F
PRINCE ALBERT  MOCLDY    54  45  71 SE7       29.89F
REGINA         PTCLDY    55  45  67 E8        29.93S



USA.gov is the U.S. government's official web portal to all federal, state and local government web resources and services.